User: anonymous   Login
Location: Unspecified
(0.0000°N, 0.0000°E)
Time: 23:55:50
(UTC+00:00)
Language:

STARLINK-3196 - Orbit

View from above orbital plane
View from above orbital plane
View from above satellite
View from above satellite

Ground track
Ground track

The orbit is defined by the following mean orbital elements,

1 49768U          26145.43356596 +.00000000 +00000-0 +19132-4 0 00006
2 49768  53.2136 154.6045 0001476  60.4830 299.6309 15.08840259    00
Epoch (UTC): 25 May 2026 10:24:20
Eccentricity: 0.0001476
inclination: 53.2136°
perigee height: 539 km
apogee height: 541 km
right ascension of ascending node: 154.6045°
argument of perigee: 60.4830°
revolutions per day: 15.08840259
mean anomaly at epoch: 299.6309°

The dashed part of the orbit path shows where the satellite is in the earth's shadow,  

DLR